Weather History for Orr, MN

Change the Weather History Date:

Saturday, April 19, 2014

  Actual Average Record
Temperature  
Mean Temperature 44 °F -  
Max Temperature 55 °F 51 °F 71 °F (2005)
Min Temperature 32 °F 26 °F 12 °F (2013)
Degree Days  
Heating Degree Days 22    
Moisture  
Dew Point 30 °F    
Average Humidity 66    
Maximum Humidity 87    
Minimum Humidity 47    
Precipitation  
Precipitation 0.03 in - - ()
Sea Level Pressure  
Sea Level Pressure 29.98 in    
Wind  
Wind Speed 10 mph (SSE)    
Max Wind Speed 18 mph    
Max Gust Speed 28 mph    
Visibility 10 miles    
Events Snow    
Averages and records for this station are not official NWS values.
T = Trace of Precipitation, MM = Missing Value Source: NWS Daily Summary

Daily Weather History Graph

Daily Weather History Graph

Search for Another Location

Airport:

Trip Planner

Search our weather history database for the weather conditions in past years. The results will help you decide how hot, cold, wet, or windy it might be!

Date:

Astronomy

Apr. 19, 2014 Rise Set
Actual Time 6:14 AM CDT 8:07 PM CDT
Civil Twilight 5:41 AM CDT 8:40 PM CDT
Nautical Twilight 5:00 AM CDT 9:21 PM CDT
Astronomical Twilight 4:15 AM CDT 10:07 PM CDT
Moon 12:02 AM CDT 9:22 AM CDT
Length of Visible Light 14h 59m
Length of Day
13h 53m
Waning Gibbous, 78% of the Moon is Illuminated
Apr 19
Waning Gibbous
Apr 22
Last Quarter
Apr 29
New
May 6
First Quarter
May 14
Full

Hourly Weather History & Observations

Time (CDT) Temp. Windchill Dew Point Humidity Pressure Visibility Wind Dir Wind Speed Gust Speed Precip Events Conditions
12:13 AM 33.8 °F 26.4 °F 17.6 °F 52% 30.23 in 10.0 mi SE 9.2 mph - N/A   Overcast
12:33 AM 33.8 °F 27.7 °F 17.6 °F 52% 30.22 in 10.0 mi ESE 6.9 mph - N/A   Overcast
12:53 AM 33.8 °F 25.8 °F 19.4 °F 56% 30.20 in 10.0 mi ESE 10.4 mph - N/A   Overcast
1:14 AM 33.8 °F 27.0 °F 19.4 °F 56% 30.20 in 10.0 mi ESE 8.1 mph - N/A   Overcast
1:33 AM 33.8 °F 27.7 °F 19.4 °F 56% 30.20 in 10.0 mi ESE 6.9 mph - N/A   Overcast
1:53 AM 33.8 °F 26.4 °F 19.4 °F 56% 30.20 in 10.0 mi ESE 9.2 mph 18.4 mph N/A   Overcast
2:13 AM 33.8 °F 26.4 °F 19.4 °F 56% 30.19 in 10.0 mi SE 9.2 mph - N/A   Overcast
2:34 AM 33.8 °F 26.4 °F 19.4 °F 56% 30.16 in 10.0 mi ESE 9.2 mph 18.4 mph N/A   Overcast
2:54 AM 33.8 °F 26.4 °F 19.4 °F 56% 30.15 in 10.0 mi SE 9.2 mph 17.3 mph N/A   Overcast
3:13 AM 33.8 °F 27.0 °F 19.4 °F 56% 30.14 in 10.0 mi ESE 8.1 mph - N/A   Overcast
3:33 AM 33.8 °F 25.3 °F 19.4 °F 56% 30.13 in 10.0 mi ESE 11.5 mph 16.1 mph N/A   Overcast
3:55 AM 35.6 °F 27.5 °F 19.4 °F 52% 30.10 in 10.0 mi ESE 11.5 mph 17.3 mph N/A   Overcast
4:13 AM 35.6 °F 27.5 °F 19.4 °F 52% 30.09 in 10.0 mi ESE 11.5 mph 18.4 mph N/A   Overcast
4:33 AM 35.6 °F 28.0 °F 19.4 °F 52% 30.08 in 10.0 mi SE 10.4 mph 17.3 mph N/A   Overcast
4:54 AM 33.8 °F 23.9 °F 26.6 °F 75% 30.06 in 1.8 mi SE 15.0 mph 24.2 mph N/A Snow Light Snow
5:13 AM 32.0 °F 23.0 °F 28.4 °F 87% 30.05 in 4.0 mi ESE 11.5 mph 20.7 mph N/A Snow Light Snow
5:34 AM 32.0 °F 22.5 °F 28.4 °F 87% 30.01 in 3.0 mi ESE 12.7 mph 20.7 mph N/A   Overcast
5:54 AM 32.0 °F 22.5 °F 28.4 °F 87% 30.02 in 10.0 mi ESE 12.7 mph 26.5 mph 0.01 in   Overcast
6:14 AM 32.0 °F 23.0 °F 28.4 °F 87% 30.02 in 5.0 mi SE 11.5 mph 23.0 mph 0.01 in   Overcast
6:54 AM 32.0 °F 22.5 °F 28.4 °F 87% 29.99 in 10.0 mi SE 12.7 mph 21.9 mph 0.02 in   Overcast
7:14 AM 33.8 °F 23.5 °F 30.2 °F 87% 29.99 in 10.0 mi SE 16.1 mph 27.6 mph N/A   Overcast
7:34 AM 33.8 °F 24.3 °F 30.2 °F 87% 29.99 in 10.0 mi SE 13.8 mph 26.5 mph N/A   Overcast
7:53 AM 33.8 °F 24.3 °F 30.2 °F 87% 30.00 in 10.0 mi SE 13.8 mph 23.0 mph N/A   Overcast
8:13 AM 33.8 °F 25.8 °F 30.2 °F 87% 29.99 in 10.0 mi SE 10.4 mph 20.7 mph N/A   Overcast
8:34 AM 33.8 °F - 30.2 °F 87% 29.98 in 10.0 mi Calm Calm 20.7 mph N/A   Light Drizzle
8:53 AM 33.8 °F 25.3 °F 30.2 °F 87% 29.98 in 10.0 mi SE 11.5 mph 19.6 mph N/A   Light Drizzle
9:13 AM 35.6 °F 25.5 °F 30.2 °F 81% 29.97 in 10.0 mi SE 17.3 mph 27.6 mph N/A   Light Drizzle
9:34 AM 35.6 °F 26.6 °F 30.2 °F 81% 29.98 in 10.0 mi SSE 13.8 mph 20.7 mph N/A   Overcast
9:53 AM 35.6 °F 26.6 °F 30.2 °F 81% 29.97 in 10.0 mi SE 13.8 mph 23.0 mph N/A   Overcast
10:14 AM 35.6 °F 25.5 °F 30.2 °F 81% 29.95 in 10.0 mi SSE 17.3 mph 23.0 mph N/A   Overcast
10:33 AM 35.6 °F 26.6 °F 30.2 °F 81% 29.95 in 10.0 mi SSE 13.8 mph 21.9 mph N/A   Overcast
10:53 AM 35.6 °F 25.5 °F 28.4 °F 75% 29.95 in 10.0 mi SSE 17.3 mph 23.0 mph N/A   Overcast
11:13 AM 35.6 °F 26.2 °F 28.4 °F 75% 29.94 in 10.0 mi SSE 15.0 mph 26.5 mph N/A   Overcast
11:33 AM 37.4 °F 28.9 °F 28.4 °F 70% 29.93 in 10.0 mi SE 13.8 mph 24.2 mph N/A   Overcast
11:53 AM 37.4 °F 28.5 °F 28.4 °F 70% 29.92 in 10.0 mi SSE 15.0 mph 25.3 mph N/A   Mostly Cloudy
12:13 PM 37.4 °F 28.2 °F 28.4 °F 70% 29.92 in 10.0 mi SSE 16.1 mph 25.3 mph N/A   Overcast
12:34 PM 37.4 °F 28.2 °F 30.2 °F 75% 29.91 in 10.0 mi SSE 16.1 mph 25.3 mph N/A   Overcast
12:53 PM 39.2 °F 29.8 °F 30.2 °F 70% 29.91 in 10.0 mi SSE 18.4 mph 26.5 mph N/A   Overcast
1:14 PM 39.2 °F 29.8 °F 30.2 °F 70% 29.91 in 10.0 mi South 18.4 mph 25.3 mph N/A   Overcast
1:34 PM 41.0 °F 32.8 °F 30.2 °F 65% 29.91 in 10.0 mi SSE 16.1 mph 24.2 mph N/A   Overcast
1:53 PM 41.0 °F 33.9 °F 30.2 °F 65% 29.92 in 10.0 mi SSE 12.7 mph 23.0 mph N/A   Overcast
2:13 PM 42.8 °F 35.8 °F 30.2 °F 61% 29.91 in 10.0 mi SSE 13.8 mph 20.7 mph N/A   Overcast
2:33 PM 44.6 °F 36.9 °F 30.2 °F 57% 29.90 in 10.0 mi SSE 18.4 mph 21.9 mph N/A   Mostly Cloudy
2:54 PM 48.2 °F - 32.0 °F 54% 29.90 in 10.0 mi SSE 15.0 mph 20.7 mph N/A   Scattered Clouds
3:13 PM 46.4 °F 41.1 °F 32.0 °F 57% 29.89 in 10.0 mi SSE 11.5 mph 20.7 mph N/A   Clear
3:33 PM 48.2 °F - 32.0 °F 54% 29.88 in 10.0 mi SSE 11.5 mph 18.4 mph N/A   Clear
3:54 PM 50.0 °F - 33.8 °F 54% 29.88 in 10.0 mi South 13.8 mph 18.4 mph N/A   Clear
4:33 PM 53.6 °F - 33.8 °F 47% 29.88 in 10.0 mi South 16.1 mph 24.2 mph N/A   Clear
4:53 PM 55.4 °F - 35.6 °F 47% 29.88 in 10.0 mi South 13.8 mph 20.7 mph N/A   Clear
5:14 PM 55.4 °F - 35.6 °F 47% 29.87 in 10.0 mi South 13.8 mph 19.6 mph N/A   Clear
5:33 PM 55.4 °F - 35.6 °F 47% 29.87 in 10.0 mi SSE 15.0 mph 20.7 mph N/A   Clear
5:54 PM 55.4 °F - 35.6 °F 47% 29.87 in 10.0 mi South 10.4 mph - N/A   Clear
6:13 PM 55.4 °F - 35.6 °F 47% 29.87 in 10.0 mi SSE 11.5 mph 16.1 mph N/A   Clear
6:33 PM 55.4 °F - 35.6 °F 47% 29.87 in 10.0 mi South 10.4 mph 16.1 mph N/A   Clear
6:53 PM 55.4 °F - 37.4 °F 51% 29.87 in 10.0 mi South 10.4 mph - N/A   Clear
7:14 PM 55.4 °F - 37.4 °F 51% 29.87 in 10.0 mi South 8.1 mph - N/A   Clear
7:33 PM 53.6 °F - 37.4 °F 54% 29.88 in 10.0 mi South 6.9 mph - N/A   Clear
7:53 PM 53.6 °F - 37.4 °F 54% 29.88 in 10.0 mi South 8.1 mph - N/A   Clear
8:14 PM 51.8 °F - 37.4 °F 58% 29.89 in 10.0 mi South 5.8 mph - N/A   Clear
8:34 PM 51.8 °F - 37.4 °F 58% 29.90 in 10.0 mi South 6.9 mph - N/A   Clear
8:53 PM 48.2 °F - 37.4 °F 66% 29.90 in 10.0 mi South 4.6 mph - N/A   Clear
9:14 PM 46.4 °F - 35.6 °F 66% 29.91 in 10.0 mi Calm Calm - N/A   Clear
9:33 PM 44.6 °F - 37.4 °F 76% 29.92 in 10.0 mi Calm Calm - N/A   Clear
9:54 PM 44.6 °F - 37.4 °F 76% 29.93 in 10.0 mi Calm Calm - N/A   Clear
10:13 PM 41.0 °F 39.0 °F 35.6 °F 81% 29.93 in 10.0 mi SSE 3.5 mph - N/A   Clear
10:33 PM 44.6 °F 43.1 °F 37.4 °F 76% 29.93 in 10.0 mi South 3.5 mph - N/A   Clear
10:54 PM 44.6 °F 43.1 °F 37.4 °F 76% 29.94 in 10.0 mi SSE 3.5 mph - N/A   Clear
11:13 PM 44.6 °F - 37.4 °F 76% 29.94 in 10.0 mi Calm Calm - N/A   Clear
11:34 PM 44.6 °F - 37.4 °F 76% 29.94 in 10.0 mi Calm Calm - N/A   Clear
11:53 PM 44.6 °F - 37.4 °F 76% 29.95 in 10.0 mi Calm Calm - N/A   Clear